EW4504 Weather Reports


time (UTC)temp
C
wind
direction
speed
KPH
gust
KPH
rain 1hr
cm
rain 24hr
cm
rain mn
cm
humidity
%
barometer
mb
20260901082030 22 0 0.0 1.6 0.00 0.00 0.00 88 1019.4
20260901081548 22 0 0.0 1.6 0.00 0.00 0.00 88 1019.4
20260901081030 22 0 0.0 1.6 0.00 0.00 0.00 88 1019.5
20260901080533 22 0 0.0 3.2 0.00 0.00 0.00 88 1019.4
20260901080057 22 0 0.0 6.4 0.00 0.00 0.00 88 1019.3
20260901075533 22 51 1.6 6.4 0.00 0.00 0.00 88 1019.3
20260901075029 23 51 1.6 6.4 0.00 0.00 0.00 88 1019.3
20260901074553 23 76 0.0 0.0 0.00 0.00 0.00 88 1019.3
20260901074032 23 0 0.0 0.0 0.00 0.00 0.00 88 1019.2
20260901073529 23 0 0.0 0.0 0.00 0.00 0.00 88 1019.2
20260901073053 23 0 0.0 0.0 0.00 0.00 0.00 88 1019.3
20260901072528 23 0 0.0 0.0 0.00 0.00 0.00 88 1019.3
20260901072029 23 0 0.0 0.0 0.00 0.00 0.00 88 1019.3
20260901071554 23 0 0.0 0.0 0.00 0.00 0.00 88 1019.3
20260901071032 23 0 0.0 0.0 0.00 0.00 0.00 88 1019.3
20260901070531 23 0 0.0 0.0 0.00 0.00 0.00 87 1019.4
20260901070051 23 0 0.0 0.0 0.00 0.00 0.00 87 1019.4
20260901065531 23 0 0.0 0.0 0.00 0.00 0.00 87 1019.4
20260901065029 23 0 0.0 0.0 0.00 0.00 0.00 87 1019.5
20260901064549 23 0 0.0 0.0 0.00 0.00 0.00 87 1019.5
20260901064029 23 0 0.0 0.0 0.00 0.00 0.00 87 1019.5
20260901063528 23 0 0.0 0.0 0.00 0.00 0.00 87 1019.5
20260901063053 23 0 0.0 0.0 0.00 0.00 0.00 87 1019.5
20260901062532 23 0 0.0 0.0 0.00 0.00 0.00 87 1019.6
20260901062031 23 0 0.0 0.0 0.00 0.00 0.00 86 1019.6
20260901061546 23 0 0.0 3.2 0.00 0.00 0.00 86 1019.7
20260901061030 23 0 0.0 3.2 0.00 0.00 0.00 86 1019.6
20260901060529 23 0 0.0 0.0 0.00 0.00 0.00 87 1019.6
20260901060049 23 0 0.0 0.0 0.00 0.00 0.00 87 1019.6
20260901055528 23 0 0.0 0.0 0.00 0.00 0.00 87 1019.5
20260901055028 23 0 0.0 0.0 0.00 0.00 0.00 87 1019.6
20260901054559 23 0 0.0 3.2 0.00 0.00 0.00 87 1019.6
20260901054031 23 0 0.0 3.2 0.00 0.00 0.00 87 1019.8
20260901053530 23 0 0.0 3.2 0.00 0.00 0.00 86 1019.8
20260901053046 23 0 0.0 0.0 0.00 0.00 0.00 86 1019.8
20260901052528 23 0 0.0 0.0 0.00 0.00 0.00 86 1019.8
20260901052028 23 0 0.0 0.0 0.00 0.00 0.00 86 1019.8
20260901051557 23 0 0.0 0.0 0.00 0.00 0.00 86 1019.7
20260901051030 23 0 0.0 0.0 0.00 0.00 0.00 85 1019.7
20260901050528 23 0 0.0 1.6 0.00 0.00 0.00 85 1019.6
20260901050051 23 0 0.0 1.6 0.00 0.00 0.00 85 1019.7
20260901045531 23 0 0.0 3.2 0.00 0.00 0.00 85 1019.8
20260901045028 23 0 0.0 3.2 0.00 0.00 0.00 85 1019.8
20260901044602 23 0 0.0 3.2 0.00 0.00 0.00 85 1019.8
20260901044029 23 0 0.0 0.0 0.00 0.00 0.00 85 1019.8
20260901043529 23 0 0.0 0.0 0.00 0.00 0.00 84 1019.8
20260901043056 24 0 0.0 0.0 0.00 0.00 0.00 84 1019.6
20260901042534 24 0 0.0 0.0 0.00 0.00 0.00 84 1019.6
20260901042029 24 0 0.0 0.0 0.00 0.00 0.00 83 1019.6
20260901041542 24 0 0.0 0.0 0.00 0.00 0.00 84 1019.6
20260901041032 24 0 0.0 0.0 0.00 0.00 0.00 83 1019.6
20260901040529 24 0 0.0 1.6 0.00 0.00 0.00 83 1019.5
20260901040052 24 0 0.0 1.6 0.00 0.00 0.00 82 1019.6
20260901035528 24 0 0.0 1.6 0.00 0.00 0.00 82 1019.6
20260901035029 24 0 0.0 0.0 0.00 0.00 0.00 82 1019.6
20260901034544 24 0 0.0 0.0 0.00 0.00 0.00 82 1019.6
20260901034028 24 0 0.0 0.0 0.00 0.00 0.00 82 1019.6
20260901033528 24 0 0.0 0.0 0.00 0.00 0.00 82 1019.6
20260901033059 25 0 0.0 1.6 0.00 0.00 0.00 81 1019.7
20260901032529 25 0 0.0 1.6 0.00 0.00 0.00 81 1019.6
20260901032029 25 0 0.0 1.6 0.00 0.00 0.00 80 1019.6
20260901031543 25 0 0.0 0.0 0.00 0.00 0.00 80 1019.6
20260901031028 25 0 0.0 0.0 0.00 0.00 0.00 79 1019.7
20260901030529 25 0 0.0 0.0 0.00 0.00 0.00 79 1019.6
20260901030053 25 0 0.0 0.0 0.00 0.00 0.00 79 1019.7
20260901025530 25 0 0.0 0.0 0.00 0.00 0.00 78 1019.8
20260901025031 25 0 0.0 0.0 0.00 0.00 0.00 78 1019.8
20260901024546 25 0 0.0 0.0 0.00 0.00 0.00 78 1019.8
20260901024028 25 0 0.0 0.0 0.00 0.00 0.00 77 1019.8
20260901023529 25 0 0.0 0.0 0.00 0.00 0.00 77 1019.8
20260901023055 25 0 0.0 0.0 0.00 0.00 0.00 76 1019.7
20260901022531 25 0 0.0 0.0 0.00 0.00 0.00 76 1019.6
20260901022030 26 0 0.0 0.0 0.00 0.00 0.00 75 1019.6
20260901021543 26 0 0.0 0.0 0.00 0.00 0.00 74 1019.6
20260901021029 26 0 0.0 0.0 0.00 0.00 0.00 74 1019.6
20260901020529 26 0 0.0 0.0 0.00 0.00 0.00 75 1019.6
20260901020055 26 0 0.0 0.0 0.00 0.00 0.00 75 1019.5
20260901015532 26 0 0.0 0.0 0.00 0.00 0.00 74 1019.4
20260901015028 26 0 0.0 0.0 0.00 0.00 0.00 74 1019.5
20260901014553 26 0 0.0 0.0 0.00 0.00 0.00 73 1019.4
20260901014028 26 0 0.0 0.0 0.00 0.00 0.00 72 1019.4
20260901013533 27 0 0.0 0.0 0.00 0.00 0.00 71 1019.4
20260901013042 27 0 0.0 0.0 0.00 0.00 0.00 70 1019.3
20260901012535 27 0 0.0 0.0 0.00 0.00 0.00 70 1019.2
20260901012028 27 0 0.0 0.0 0.00 0.00 0.00 70 1019.2
20260901011601 27 0 0.0 0.0 0.00 0.00 0.00 69 1019.1
20260901011028 27 0 0.0 0.0 0.00 0.00 0.00 69 1018.9
20260901010528 27 0 0.0 0.0 0.00 0.00 0.00 68 1018.8
20260901010051 27 0 0.0 0.0 0.00 0.00 0.00 68 1018.8
20260901005527 28 0 0.0 0.0 0.00 0.00 0.00 67 1018.8
20260901005031 28 0 0.0 0.0 0.00 0.00 0.00 67 1018.7
20260901004555 28 0 0.0 0.0 0.00 0.00 0.00 66 1018.8
20260901004031 28 0 0.0 0.0 0.00 0.00 0.00 66 1018.7
20260901003529 28 0 0.0 0.0 0.00 0.00 0.00 66 1018.7
20260901003042 28 0 0.0 0.0 0.00 0.00 0.00 65 1018.7
20260901002529 29 0 0.0 0.0 0.00 0.00 0.00 64 1018.6
20260901002032 29 0 0.0 3.2 0.00 0.00 0.00 63 1018.6
20260901001551 30 0 0.0 3.2 0.00 0.00 0.00 61 1018.5
20260901001032 30 0 0.0 3.2 0.00 0.00 0.00 60 1018.6
20260901000533 30 0 0.0 0.0 0.00 0.00 0.00 59 1018.6
20260901000049 30 0 0.0 0.0 0.00 0.00 0.00 58 1018.5
20260831235531 30 0 0.0 0.0 0.00 0.00 0.00 58 1018.5
20260831235033 31 0 0.0 0.0 0.00 0.00 0.00 57 1018.4
20260831234551 31 0 0.0 0.0 0.00 0.00 0.00 57 1018.4
20260831234034 31 0 0.0 1.6 0.00 0.00 0.00 56 1018.4
20260831233531 31 0 0.0 1.6 0.00 0.00 0.00 55 1018.5
20260831233049 31 0 0.0 1.6 0.00 0.00 0.00 55 1018.5
20260831232530 31 0 0.0 4.8 0.00 0.00 0.00 55 1018.4
20260831232031 31 0 0.0 4.8 0.00 0.00 0.00 54 1018.4
20260831231545 32 76 0.0 4.8 0.00 0.00 0.00 54 1018.4
20260831231033 32 74 1.6 4.8 0.00 0.00 0.00 53 1018.6
20260831230534 32 74 1.6 4.8 0.00 0.00 0.00 53 1018.6
20260831230050 32 0 0.0 8.0 0.00 0.00 0.00 52 1018.6
20260831225530 32 72 3.2 8.0 0.00 0.00 0.00 51 1018.6
20260831225034 32 111 1.6 6.4 0.00 0.00 0.00 51 1018.6
20260831224553 32 69 1.6 8.0 0.00 0.00 0.00 50 1018.7
20260831224031 32 111 3.2 8.0 0.00 0.00 0.00 48 1018.7
20260831223532 32 74 1.6 9.7 0.00 0.00 0.00 49 1018.6
20260831223051 32 109 1.6 11.3 0.00 0.00 0.00 48 1018.7
20260831222532 32 0 0.0 11.3 0.00 0.00 0.00 48 1018.7
20260831222032 32 114 4.8 11.3 0.00 0.00 0.00 48 1018.7
20260831221546 32 106 4.8 9.7 0.00 0.00 0.00 48 1018.7
20260831221031 32 0 3.2 8.0 0.00 0.00 0.00 47 1018.7
20260831220534 33 0 1.6 8.0 0.00 0.00 0.00 48 1018.8
20260831220046 33 105 1.6 8.0 0.00 0.00 0.00 47 1018.8
20260831215534 33 129 3.2 8.0 0.00 0.00 0.00 48 1018.9
20260831215031 33 46 3.2 8.0 0.00 0.00 0.00 46 1018.9
20260831214620 33 0 1.6 8.0 0.00 0.00 0.00 47 1018.9
20260831214030 33 0 1.6 8.0 0.00 0.00 0.00 46 1018.8
20260831213531 33 49 0.0 4.8 0.00 0.00 0.00 48 1019.0
20260831213053 33 18 1.6 4.8 0.00 0.00 0.00 47 1019.0
20260831212530 33 20 1.6 9.7 0.00 0.00 0.00 47 1019.0
20260831212030 33 38 3.2 14.5 0.00 0.00 0.00 48 1019.0
20260831211602 33 42 3.2 14.5 0.00 0.00 0.00 49 1019.1
20260831211030 33 46 1.6 11.3 0.00 0.00 0.00 49 1019.2
20260831210527 33 63 1.6 12.9 0.00 0.00 0.00 48 1019.1
20260831210045 33 69 8.0 12.9 0.00 0.00 0.00 48 1019.1
20260831205530 33 54 4.8 9.7 0.00 0.00 0.00 48 1019.1
20260831205033 33 53 3.2 8.0 0.00 0.00 0.00 48 1019.1
20260831204556 33 76 3.2 12.9 0.00 0.00 0.00 50 1019.2
20260831204031 32 346 4.8 12.9 0.00 0.00 0.00 50 1019.3
20260831203530 32 0 1.6 12.9 0.00 0.00 0.00 50 1019.2
20260831203052 33 62 4.8 12.9 0.00 0.00 0.00 50 1019.3
20260831202531 33 33 1.6 8.0 0.00 0.00 0.00 50 1019.3
20260831202030 32 75 1.6 9.7 0.00 0.00 0.00 50 1019.3
20260831201549 32 331 3.2 12.9 0.00 0.00 0.00 51 1019.4
20260831201033 32 81 3.2 14.5 0.00 0.00 0.00 51 1019.5
20260831200531 32 60 6.4 14.5 0.00 0.00 0.00 52 1019.5
20260831200049 32 313 4.8 14.5 0.00 0.00 0.00 52 1019.6
20260831195527 32 223 3.2 8.0 0.00 0.00 0.00 53 1019.7
20260831195027 33 144 1.6 16.1 0.00 0.00 0.00 51 1019.7
20260831194543 33 341 6.4 16.1 0.00 0.00 0.00 50 1019.8
20260831194032 33 0 3.2 12.9 0.00 0.00 0.00 50 1019.8
20260831193531 33 57 4.8 12.9 0.00 0.00 0.00 51 1019.9
20260831193053 32 22 4.8 9.7 0.00 0.00 0.00 52 1019.9
20260831192530 32 234 1.6 9.7 0.00 0.00 0.00 52 1020.0
20260831192032 33 50 3.2 9.7 0.00 0.00 0.00 51 1020.0
20260831191546 32 0 1.6 14.5 0.00 0.00 0.00 54 1020.0
20260831191027 32 73 6.4 14.5 0.00 0.00 0.00 55 1020.0
20260831190528 32 175 4.8 11.3 0.00 0.00 0.00 56 1020.1
20260831190105 32 192 3.2 11.3 0.00 0.00 0.00 55 1020.2
20260831185530 32 0 4.8 12.9 0.00 0.00 0.00 54 1020.3
20260831185029 32 330 4.8 12.9 0.00 0.00 0.00 54 1020.4
20260831184544 32 298 4.8 11.3 0.00 0.00 0.00 55 1020.4
20260831184028 32 39 6.4 11.3 0.00 0.00 0.00 55 1020.5
20260831183530 32 15 3.2 9.7 0.00 0.00 0.00 55 1020.5
20260831183100 32 114 1.6 6.4 0.00 0.00 0.00 56 1020.6
20260831182532 31 82 3.2 11.3 0.00 0.00 0.00 55 1020.6
20260831182033 31 0 0.0 11.3 0.00 0.00 0.00 56 1020.7
20260831181553 32 121 3.2 11.3 0.00 0.00 0.00 57 1020.7
20260831181030 32 116 1.6 11.3 0.00 0.00 0.00 56 1020.7
20260831180529 32 55 1.6 11.3 0.00 0.00 0.00 56 1020.8
20260831180057 32 321 3.2 11.3 0.00 0.00 0.00 54 1020.9
20260831175531 32 158 1.6 11.3 0.00 0.00 0.00 56 1020.9
20260831175033 32 43 4.8 11.3 0.00 0.00 0.00 56 1020.9
20260831174558 32 70 1.6 12.9 0.00 0.00 0.00 55 1020.9
20260831174031 32 337 4.8 12.9 0.00 0.00 0.00 56 1021.0
20260831173530 32 0 1.6 12.9 0.00 0.00 0.00 58 1021.0
20260831173051 31 328 4.8 9.7 0.00 0.00 0.00 59 1020.9
20260831172529 31 297 3.2 9.7 0.00 0.00 0.00 60 1021.0
20260831172032 31 55 4.8 14.5 0.00 0.00 0.00 58 1021.1
20260831171555 31 14 3.2 14.5 0.00 0.00 0.00 59 1021.2
20260831171033 31 31 3.2 11.3 0.00 0.00 0.00 61 1021.1
20260831170532 31 219 3.2 14.5 0.00 0.00 0.00 61 1021.4
20260831170107 31 225 4.8 14.5 0.00 0.00 0.00 59 1021.3
20260831165532 31 0 3.2 12.9 0.00 0.00 0.00 60 1021.4
20260831165031 31 48 3.2 11.3 0.00 0.00 0.00 61 1021.5
20260831164602 31 128 4.8 11.3 0.00 0.00 0.00 61 1021.5
20260831164032 31 19 1.6 6.4 0.00 0.00 0.00 64 1021.6
20260831163531 30 0 1.6 6.4 0.00 0.00 0.00 65 1021.6
20260831163047 30 17 3.2 11.3 0.00 0.00 0.00 66 1021.8
20260831162530 30 150 3.2 11.3 0.00 0.00 0.00 68 1021.7
20260831162031 30 109 1.6 8.0 0.00 0.00 0.00 69 1021.8
20260831161556 29 0 3.2 8.0 0.00 0.00 0.00 69 1021.9
20260831161029 29 96 3.2 8.0 0.00 0.00 0.00 70 1021.9
20260831160530 29 35 1.6 8.0 0.00 0.00 0.00 71 1021.9
20260831160053 28 143 3.2 6.4 0.00 0.00 0.00 73 1022.0
20260831155531 28 115 1.6 6.4 0.00 0.00 0.00 73 1021.9
20260831155034 28 112 1.6 6.4 0.00 0.00 0.00 72 1022.0
20260831154620 28 104 3.2 6.4 0.00 0.00 0.00 75 1022.0
20260831154031 28 0 0.0 4.8 0.00 0.00 0.00 75 1021.9
20260831153533 28 0 1.6 4.8 0.00 0.00 0.00 74 1021.9
20260831153050 28 289 0.0 4.8 0.00 0.00 0.00 75 1022.1
20260831152533 28 0 0.0 3.2 0.00 0.00 0.00 75 1022.0
20260831152027 28 0 1.6 4.8 0.00 0.00 0.00 75 1022.0
20260831151547 28 0 0.0 8.0 0.00 0.00 0.00 76 1022.0
20260831151028 28 290 0.0 8.0 0.00 0.00 0.00 77 1022.0
20260831150530 28 292 3.2 8.0 0.00 0.00 0.00 77 1021.9
20260831150042 27 308 1.6 8.0 0.00 0.00 0.00 79 1021.9
20260831145530 27 344 1.6 8.0 0.00 0.00 0.00 79 1021.9
20260831145027 27 302 0.0 6.4 0.00 0.00 0.00 80 1021.9
20260831144553 27 205 0.0 9.7 0.00 0.00 0.00 80 1021.9
20260831144030 27 289 0.0 9.7 0.00 0.00 0.00 80 1021.9
20260831143532 27 299 1.6 6.4 0.00 0.00 0.00 81 1022.0
20260831143053 26 0 0.0 4.8 0.00 0.00 0.00 81 1022.0
20260831142530 26 300 0.0 6.4 0.00 0.00 0.00 81 1022.1
20260831142031 26 298 1.6 11.3 0.00 0.00 0.00 82 1022.1
20260831141544 26 296 3.2 11.3 0.00 0.00 0.00 82 1022.1
20260831141029 26 240 3.2 9.7 0.00 0.00 0.00 83 1022.1
20260831140528 26 223 4.8 9.7 0.00 0.00 0.00 83 1022.1
20260831140043 26 302 3.2 6.4 0.00 0.00 0.00 84 1021.9
20260831135530 25 185 1.6 6.4 0.00 0.00 0.00 84 1021.9
20260831135033 25 182 0.0 3.2 0.00 0.00 0.00 85 1022.0
20260831134543 25 0 0.0 4.8 0.00 0.00 0.00 85 1022.0
20260831134029 25 0 0.0 4.8 0.00 0.00 0.00 85 1021.9
20260831133529 25 0 0.0 4.8 0.00 0.00 0.00 86 1021.9
20260831133046 25 124 0.0 4.8 0.00 0.00 0.00 87 1021.9
20260831132529 25 0 1.6 6.4 0.00 0.00 0.00 87 1021.9
20260831132030 25 0 1.6 6.4 0.00 0.00 0.00 88 1022.0
20260831131551 24 46 1.6 6.4 0.00 0.00 0.00 89 1022.0
20260831131027 23 60 1.6 6.4 0.00 0.00 0.00 89 1022.1
20260831130530 23 49 1.6 6.4 0.00 0.00 0.00 89 1022.1
20260831130055 23 65 3.2 6.4 0.00 0.00 0.00 90 1022.0
20260831125533 23 69 1.6 6.4 0.00 0.00 0.00 91 1022.1
20260831125029 23 78 3.2 6.4 0.00 0.00 0.00 91 1022.1
20260831124549 22 87 0.0 4.8 0.00 0.00 0.00 92 1022.0
20260831124029 22 93 0.0 4.8 0.00 0.00 0.00 92 1022.0
20260831123532 22 0 1.6 4.8 0.00 0.00 0.00 92 1021.8
20260831123050 22 0 0.0 4.8 0.00 0.00 0.00 93 1021.9
20260831122528 22 94 0.0 3.2 0.00 0.00 0.00 93 1021.8
20260831122028 22 0 0.0 3.2 0.00 0.00 0.00 93 1021.8
20260831121552 22 92 0.0 0.0 0.00 0.00 0.00 93 1021.7
20260831121030 22 0 0.0 0.0 0.00 0.00 0.00 93 1021.7
20260831120535 22 0 0.0 0.0 0.00 0.00 0.00 92 1021.6
20260831120056 21 0 0.0 0.0 0.00 0.00 0.00 92 1021.6
20260831115536 21 0 0.0 0.0 0.00 0.00 0.00 92 1021.6
20260831115029 21 0 0.0 0.0 0.00 0.00 0.00 92 1021.5
20260831114558 21 0 0.0 0.0 0.00 0.00 0.00 92 1021.4
20260831114030 21 0 0.0 0.0 0.00 0.00 0.00 92 1021.4
20260831113532 21 0 0.0 0.0 0.00 0.00 0.00 92 1021.3
20260831113116 21 0 0.0 0.0 0.00 0.00 0.00 92 1021.4
20260831112533 21 0 0.0 0.0 0.00 0.00 0.00 92 1021.3
20260831112031 21 0 0.0 0.0 0.00 0.00 0.00 91 1021.3
20260831111551 21 0 0.0 0.0 0.00 0.00 0.00 91 1021.3
20260831111030 21 0 0.0 0.0 0.00 0.00 0.00 91 1021.3
20260831110530 22 0 0.0 0.0 0.00 0.00 0.00 92 1021.1
20260831110048 22 0 0.0 0.0 0.00 0.00 0.00 92 1021.1
20260831105531 22 0 0.0 0.0 0.00 0.00 0.00 92 1021.0
20260831105029 22 0 0.0 0.0 0.00 0.00 0.00 92 1020.9
20260831104548 22 0 0.0 0.0 0.00 0.00 0.00 91 1020.6
20260831104034 22 0 0.0 0.0 0.00 0.00 0.00 91 1020.6
20260831103533 22 0 0.0 0.0 0.00 0.00 0.00 91 1020.6
20260831103049 22 0 0.0 0.0 0.00 0.00 0.00 91 1020.6
20260831102530 22 0 0.0 0.0 0.00 0.00 0.00 91 1020.6
20260831102031 22 0 0.0 0.0 0.00 0.00 0.00 91 1020.5
20260831101546 22 0 0.0 0.0 0.00 0.00 0.00 91 1020.4
20260831101032 22 0 0.0 0.0 0.00 0.00 0.00 91 1020.4
20260831100530 22 0 0.0 0.0 0.00 0.00 0.00 91 1020.4
20260831100050 22 0 0.0 0.0 0.00 0.00 0.00 91 1020.4
20260831095532 22 0 0.0 0.0 0.00 0.00 0.00 91 1020.4
20260831095030 22 0 0.0 0.0 0.00 0.00 0.00 91 1020.3
20260831094559 22 0 0.0 0.0 0.00 0.00 0.00 91 1020.3
20260831094030 22 0 0.0 0.0 0.00 0.00 0.00 91 1020.2
20260831093533 22 0 0.0 0.0 0.00 0.00 0.00 90 1020.3
20260831093054 22 0 0.0 0.0 0.00 0.00 0.00 91 1020.3
20260831092530 22 0 0.0 0.0 0.00 0.00 0.00 91 1020.3
20260831092031 22 0 0.0 0.0 0.00 0.00 0.00 90 1020.3
20260831091550 22 0 0.0 0.0 0.00 0.00 0.00 90 1020.3
20260831091030 22 0 0.0 0.0 0.00 0.00 0.00 91 1020.4
20260831090532 22 0 0.0 0.0 0.00 0.00 0.00 90 1020.4
20260831090048 22 0 0.0 0.0 0.00 0.00 0.00 90 1020.3
20260831085532 22 0 0.0 0.0 0.00 0.00 0.00 90 1020.3
20260831085030 22 0 0.0 0.0 0.00 0.00 0.00 90 1020.2
20260831084543 22 0 0.0 0.0 0.00 0.00 0.00 90 1020.3
20260831084028 22 0 0.0 0.0 0.00 0.00 0.00 90 1020.2
20260831083528 22 0 0.0 0.0 0.00 0.00 0.00 90 1020.3
20260831083044 22 0 0.0 0.0 0.00 0.00 0.00 90 1020.2
20260831082532 22 0 0.0 0.0 0.00 0.00 0.00 90 1020.1